Torna al catalogo

STARLINK-4487

AttivoComunicazioniVLEO
NORAD 53531·PAYLOAD·🇺🇸 United States

Lanciato Aug 19, 2022 da Cape Canaveral Space Force Station

Loading…

Prossimi Passaggi (prossime 24 ore)

TLE

AggiornatoSource: CelesTrak SupGP

Epoca: Sep 14, 2026, 20:07 UTC

1 53531C 22101E   26257.83868056 -.00015503  00000+0 -49869-3 0  2570
2 53531  53.1575 294.1585 0001094  82.4128 240.7954 15.31700723    19

Traccia STARLINK-4487 in tempo reale con AllMySat

Download on the App Store